Regional Weather Roundup
Issued by NWS

Home | Current Version | Previous Version | Text Only | Print | Product List | Glossary On
Versions: 1 2 3 4 5 6 7 8 9 10 11 12 13 14 15 16 17 18 19 20 21 22 23 24 25 26 27 28 29 30 31 32 33 34 35 36 37 38 39 40 41 42 43 44 45 46 47 48 49 50
000
ASUS45 KSLC 231910
RWRUT

UTAH REGIONAL WEATHER ROUNDUP
NATIONAL WEATHER SERVICE SALT LAKE CITY UT
100 PM MDT SUN JUL 23 2017

UTZ001>011-023>025-232000-

NORTHERN UTAH

CITY           SKY/WX    TMP DP  RH WIND       PRES   REMARKS
BRIGHAM CITY   SUNNY     93  19   7 N17G26    30.06F
HILL AFB       SUNNY     86  45  23 NW7       30.12F
LOGAN          MOSUNNY   84  42  22 VRB3      30.11F
OGDEN          SUNNY     90  42  18 W8        30.08F
SALT LAKE CITY MOSUNNY   93  49  22 VRB6      30.05F HX  90
TOOELE VALLEY  MOSUNNY   88  52  29 N10       30.07F
WENDOVER       PTSUNNY   86  37  17 SE8       30.07F
HEBER CITY     MOSUNNY   86  39  19 CALM      30.15F
WEST JORDAN    SUNNY     90  61  37 N8        30.09F

$$

UTZ011>015-024>027-232000-

CENTRAL/NORTHEAST UTAH

CITY           SKY/WX    TMP DP  RH WIND       PRES   REMARKS
PROVO AIRPORT  SUNNY     88  53  30 CALM      30.08F
MOAB/CANYONLAN SUNNY     93  48  21 CALM      30.08F
DELTA          MOSUNNY   91  37  15 N3        30.08F
PRICE          SUNNY     86  44  23 S7        30.20F
RICHFIELD      SUNNY     90  45  20 CALM      30.13F
ROOSEVELT      SUNNY     88  41  19 E5        30.15F
VERNAL         SUNNY     87  42  20 SE5       30.14F

$$

UTZ013>016-019>022-027-232000-

SOUTHERN UTAH

CITY           SKY/WX    TMP DP  RH WIND       PRES   REMARKS
BRYCE CANYON   MOSUNNY   80  45  28 S9        30.33F
CEDAR CITY     MOSUNNY   91  42  18 NW8       30.14F
MILFORD        SUNNY     95  42  16 CALM      30.08F HX  91
ST GEORGE      PTCLDY    98  52  21 NW5       29.92F HX  95
HANKSVILLE     SUNNY     93  43  17 CALM      30.09F
KANAB          SUNNY     91  48  22 NE7G13    30.13F
BLANDING       SUNNY     83  48  29 SE7       30.28F

$$

REGIONAL REPORTS     COLORADO/ARIZONA

CITY           SKY/WX    TMP DP  RH WIND       PRES   REMARKS
CRAIG, CO      SUNNY     89  26  10 NE7       30.22F
GRAND JUNCTION SUNNY     91  38  15 N3        30.11F
RIFLE, CO      SUNNY     87  43  21 NW7       30.16F
MONTROSE, CO   SUNNY     86  48  26 W7        30.19F
CORTEZ, CO     MOSUNNY   85  49  28 VRB6      30.20F
COLORADO CITY    N/A     95  52  23 NE6       30.12F HX  92
PAGE, AZ       SUNNY     93  51  23 N9G16     30.05F HX  90
GRAND CANYON   MOSUNNY   80  51  36 E10       30.25F
KINGMAN, AZ    SUNNY     94  59  31 SW10      30.00F HX  93
FLAGSTAFF, AZ  PTSUNNY   78  53  41 NE6       30.27F

$$

REGIONAL REPORTS    NEVADA/IDAHO/WYOMING

CITY           SKY/WX    TMP DP  RH WIND       PRES   REMARKS
LAS VEGAS, NV  MOSUNNY  101  57  23 VRB6      29.87F HX 100
ELY, NY        MOSUNNY  N/A N/A N/A MISG      30.19F
ELKO, NV       SUNNY     92  35  13 VRB6      30.09F
POCATELLO, ID  SUNNY     87  37  17 NW7       30.11F
BURLEY, ID     SUNNY     85  41  21 W6        30.07F
FORT BRIDGER,    N/A     84  25  11 CALM      30.32F
EVANSTON, WY   CLOUDY    83  32  16 NW13G20   30.31S
ROCK SPRINGS,  SUNNY     86  25  11 W10       30.26F
KEMMERER, WY     N/A     82  27  13 W8G22     30.32F

$$



USA.gov is the U.S. government's official web portal to all federal, state and local government web resources and services.